Camarillo, CA

10:40 AM PDT on May 29, 2017 (GMT -0700)
Camarillo

Weather History for KCMA - December, 2014

Change the Weather History Date:

Tuesday, December 23, 2014

  Actual Average Record
Temperature  
Mean Temperature 69 °F 53 °F  
Max Temperature 83 °F 65 °F 89 °F (1950)
Min Temperature 54 °F 42 °F 30 °F (1965)
Degree Days  
Heating Degree Days 0 12  
Month to date heating degree days 123 261  
Since 1 July heating degree days 210 593  
Cooling Degree Days 4 0  
Month to date cooling degree days 4 0  
Year to date cooling degree days 1013 330  
Growing Degree Days 18 (Base 50)    
Moisture  
Dew Point 42 °F    
Average Humidity 57    
Maximum Humidity 93    
Minimum Humidity 20    
Precipitation  
Precipitation 0.00 in 0.07 in 1.61 in (2016)
Month to date precipitation 4.08 1.10  
Year to date precipitation 9.13 14.26  
Since 1 July precipitation 4.94  
Sea Level Pressure  
Sea Level Pressure 30.06 in    
Wind  
Wind Speed 13 mph (NE)    
Max Wind Speed 28 mph    
Max Gust Speed 35 mph    
Visibility 10 miles    
Events      
T = Trace of Precipitation, MM = Missing Value Source: NWS Daily Summary

Daily Weather History Graph

Daily Weather History Graph

Search for Another Location

Airport or City:

Trip Planner

Search our weather history database for the weather conditions in past years. The results will help you decide how hot, cold, wet, or windy it might be!

Date:

Astronomy

Dec. 23, 2014 Rise Set
Actual Time 6:59 AM PST 4:51 PM PST
Civil Twilight 6:31 AM PST 5:19 PM PST
Nautical Twilight 6:00 AM PST 5:51 PM PST
Astronomical Twilight 5:29 AM PST 6:21 PM PST
Moon 8:12 AM PST (12/23) 7:07 PM PST (12/23)
Length of Visible Light 10h 48m
Length of Day
9h 52m
Waxing Crescent, 4% of the Moon is Illuminated
Dec 23
Waxing Crescent
Dec 28
First Quarter
Jan 4
Full
Jan 13
Last Quarter
Jan 20
New

Hourly Weather History & Observations

Time (PST) Temp. Dew Point Humidity Pressure Visibility Wind Dir Wind Speed Gust Speed Precip Events Conditions
12:55 AM 54.0 °F 51.1 °F 90% 30.03 in 10.0 mi NNW 3.5 mph - N/A   Clear
1:55 AM 57.0 °F 46.9 °F 69% 30.03 in 10.0 mi ENE 4.6 mph - N/A   Clear
2:55 AM 62.1 °F 44.1 °F 52% 30.04 in 10.0 mi ENE 8.1 mph - N/A   Clear
3:55 AM 70.0 °F 41.0 °F 35% 30.02 in 10.0 mi East 12.7 mph - N/A   Clear
4:55 AM 69.1 °F 41.0 °F 36% 30.03 in 10.0 mi East 11.5 mph - N/A   Clear
5:55 AM 72.0 °F 39.0 °F 30% 30.04 in 10.0 mi East 18.4 mph 28.8 mph N/A   Clear
6:55 AM 66.9 °F 41.0 °F 39% 30.05 in 10.0 mi NNE 11.5 mph - N/A   Clear
7:55 AM 70.0 °F 42.1 °F 36% 30.08 in 10.0 mi East 10.4 mph - N/A   Clear
8:55 AM 75.9 °F 39.9 °F 27% 30.10 in 10.0 mi ENE 20.7 mph 28.8 mph N/A   Clear
9:55 AM 78.1 °F 39.9 °F 25% 30.11 in 10.0 mi ENE 19.6 mph - N/A   Clear
10:55 AM 80.1 °F 39.0 °F 23% 30.09 in 10.0 mi ENE 21.9 mph 32.2 mph N/A   Clear
11:55 AM 82.0 °F 37.9 °F 21% 30.06 in 10.0 mi NE 23.0 mph 34.5 mph N/A   Clear
12:55 PM 82.9 °F 39.0 °F 21% 30.04 in 10.0 mi NE 18.4 mph - N/A   Clear
1:55 PM 82.9 °F 37.9 °F 20% 30.04 in 10.0 mi ENE 18.4 mph - N/A   Clear
2:55 PM 82.9 °F 37.9 °F 20% 30.03 in 10.0 mi ENE 21.9 mph - N/A   Clear
3:55 PM 80.1 °F 37.0 °F 21% 30.03 in 10.0 mi ENE 20.7 mph - N/A   Clear
4:55 PM 72.0 °F 46.0 °F 40% 30.05 in 10.0 mi WSW 5.8 mph - N/A   Clear
5:55 PM 66.0 °F 46.0 °F 48% 30.07 in 10.0 mi WNW 6.9 mph - N/A   Clear
6:55 PM 62.1 °F 45.0 °F 53% 30.09 in 10.0 mi Calm Calm - N/A   Clear
7:55 PM 60.1 °F 43.0 °F 53% 30.09 in 10.0 mi NE 5.8 mph - N/A   Clear
8:55 PM 60.1 °F 43.0 °F 53% 30.10 in 10.0 mi ENE 8.1 mph - N/A   Clear
9:55 PM 62.1 °F 42.1 °F 48% 30.10 in 10.0 mi NNE 11.5 mph - N/A   Clear
10:55 PM 64.0 °F 41.0 °F 43% 30.10 in 10.0 mi ENE 11.5 mph - N/A   Clear
11:55 PM 63.0 °F 39.9 °F 43% 30.09 in 10.0 mi ENE 11.5 mph - N/A   Clear